Home > Time Zones > World Clock > Weather > France > Lyon > Past weeks

Flag for France Weather past 2 weeks in Lyon, France

Now
50 °F

Clear.


Feels Like: 47 °F
Forecast: 44 / 60 °F
Wind: 7 mph from North

Location: Lyon / Bron

Current Time: Oct 23, 2014 at 8:49:30 PM

Latest Report: Oct 23, 2014 at 8:30 PM


Visibility: N/A

Pressure: 30.21 "Hg

Humidity: 76%

Dew point: 43 °F

Location of LyonLocation

Historic Weather in Lyon — Graph

°F

Lyon temperature yesterday

Maximum temperature yesterday: 55 °F (at 12:00 AM)
Minimum temperature yesterday: 46 °F (at 9:30 PM)
Average temperature yesterday: 51 °F

Past Weeks' High & Low Weather Summary

 TemperatureHumidityPressure
High79 °F (Oct 9, 1:00 PM)100% (Oct 12, 2:30 AM)30.36 "Hg (Oct 12, 2:30 AM)
Low41 °F (Oct 23, 3:30 AM)38% (Oct 22, 3:00 PM)29.71 "Hg (Oct 12, 5:30 PM)
Average62 °F77%29.99 "Hg
* Reported Oct 8 7:00 PM — Oct 23 7:30 PM, Lyon, Weather by CustomWeather, © 2014

Note: Actual official high and low records may vary slightly from our data, if they occured in-between our weather recording intervals... More about our weather records

Advertising

Lyon weather history for previous 24 hours

 ConditionsComfort  
Time TempWeatherWind HumidityBarometerVisibility
7:30 PM
Oct 23
52 °FPassing clouds.10 mph72%30.21 "HgN/A
7:00 PM52 °FClear.9 mph72%30.18 "HgN/A
6:30 PM54 °FPassing clouds.13 mph67%30.18 "HgN/A
6:00 PM55 °FClear.15 mph63%30.18 "HgN/A
5:30 PM55 °FClear.17 mph63%30.18 "HgN/A
5:00 PM57 °FClear.17 mph59%30.21 "HgN/A
4:30 PM55 °FClear.17 mph63%30.21 "HgN/A
4:00 PM54 °FPartly sunny.17 mph63%30.21 "HgN/A
3:30 PM54 °FOvercast.16 mph67%30.24 "HgN/A
3:00 PM54 °FOvercast.15 mph63%30.24 "HgN/A
2:30 PM55 °FMore clouds than sun.14 mph59%30.24 "HgN/A
2:00 PM54 °FOvercast.12 mph63%30.24 "HgN/A
1:30 PM55 °FOvercast.12 mph59%30.27 "HgN/A
1:00 PM55 °FOvercast.12 mph59%30.27 "HgN/A
12:30 PM55 °FPartly sunny.12 mph63%30.27 "HgN/A
12:00 PM54 °FPartly sunny.12 mph67%30.30 "HgN/A
11:30 AM52 °FOvercast.12 mph72%30.30 "HgN/A
11:00 AM52 °FOvercast.9 mph72%30.30 "HgN/A
10:30 AM50 °FOvercast.8 mph76%30.30 "HgN/A
10:00 AM50 °FClear.9 mph76%30.30 "HgN/A
9:30 AM48 °FClear.7 mph82%30.30 "HgN/A
9:00 AM46 °FClear.2 mph87%30.30 "HgN/A
8:30 AM45 °FClear.5 mph87%30.30 "HgN/A
8:00 AM45 °FClear.7 mph87%30.30 "HgN/A
7:30 AM43 °FClear.No wind93%30.30 "HgN/A
7:00 AM43 °FClear.2 mph93%30.30 "HgN/A
6:30 AM43 °FClear.No wind93%30.30 "HgN/A
6:00 AM41 °FFog.2 mph93%30.30 "Hg2 mi
5:30 AM41 °FClear.No wind93%30.30 "Hg5 mi
5:00 AM41 °FPassing clouds.No wind93%30.30 "HgN/A
4:30 AM41 °FPassing clouds.No wind93%30.30 "Hg6 mi
4:00 AM41 °FClear.2 mph93%30.33 "Hg4 mi
3:30 AM41 °FClear.No wind93%30.33 "HgN/A
3:00 AM43 °FClear.2 mph93%30.33 "HgN/A
2:30 AM43 °FClear.3 mph93%30.33 "Hg6 mi
2:00 AM43 °FFog.2 mph93%30.33 "Hg1 mi
1:30 AM45 °FClear.2 mph87%30.36 "HgN/A
1:00 AM45 °FClear.No wind87%30.36 "HgN/A
12:30 AM45 °FClear.No wind87%30.36 "HgN/A
12:00 AM46 °FOvercast.2 mph82%30.36 "HgN/A
11:30 PM
Oct 22
46 °FMostly cloudy.No wind87%30.36 "HgN/A
10:30 PM46 °FClear.1 mph82%30.36 "HgN/A
10:00 PM46 °FPartly cloudy.1 mph87%30.36 "HgN/A
9:30 PM46 °FPartly cloudy.2 mph82%30.36 "HgN/A
9:00 PM48 °FOvercast.No wind76%30.36 "HgN/A
8:30 PM48 °FPassing clouds.No wind71%30.33 "HgN/A
8:00 PM48 °FLight rain. Mostly cloudy.5 mph76%30.36 "HgN/A
Weather by CustomWeather, © 2014

See weather overviewHow to use our weather pages